Location: �quirre
(50.4736°N, 2.2351°E)
Time: 09:44:59
(UTC+00:00)

Cosmos 158 Rocket - Pass Details

Date: 07 August 2020
Orbit: 698 x 794 km, 74.0° (Epoch: 20 September)

Event Time Altitude Azimuth Distance (km) Brightness Sun altitude
Rises 02:47:22 0° 331° (NNW) 3,272 7.5 -13.5°
Reaches altitude 10° 02:49:50 10° 325° (NW) 2,351 6.7 -13.2°
Maximum altitude 02:54:52 43° 255° (WSW) 1,105 4.4 -12.7°
Drops below altitude 10° 02:59:55 10° 185° (S) 2,357 6.1 -12.1°
Enters shadow 03:00:28 - 184° (S) 2,552 6.3 -12.0°
